Regional Weather Roundup
Issued by NWS

Home | Current Version | Previous Version | Text Only | Print | Product List | Glossary Off
Versions: 1 2 3 4 5 6 7 8 9 10 11 12 13 14 15 16 17 18 19 20 21 22 23 24 25 26 27 28 29 30 31 32 33 34 35 36 37 38 39 40 41 42 43 44 45 46 47 48 49 50

000
ASUS43 KLOT 040812
RWRIL

ILLINOIS REGIONAL WEATHER ROUNDUP
NATIONAL WEATHER SERVICE CHICAGO/ROMEOVILLE IL
300 AM CDT FRI SEP 04 2015

NOTE: "FAIR" INDICATES FEW OR NO CLOUDS BELOW 12,000 FEET WITH NO
SIGNIFICANT WEATHER AND/OR OBSTRUCTIONS TO VISIBILITY.

* THESE STATIONS ARE NOT UNDER NWS QUALITY CONTROL. THEY ALSO MAY NOT
  REPORT WEATHER SUCH AS PRECIPITATION OR FOG.

ILZ001-002-007-009-015-016-024-040900-
NORTHWEST ILLINOIS

CITY           SKY/WX    TMP DP  RH WIND       PRES   REMARKS
MOLINE         PTCLDY    73  69  87 CALM      29.94S
STERLING*      CLEAR     72  70  94 E7        29.94S
SAVANNA*       CLEAR     72  69  92 NE5       29.96R
$$

ILZ003-004-008-010-011-017-018-040900-
NORTH CENTRAL ILLINOIS

CITY           SKY/WX    TMP DP  RH WIND       PRES   REMARKS
ROCKFORD       CLEAR     69  65  86 E3        29.99R
FREEPORT*      CLEAR     67  65  96 E5        29.99S
ROCHELLE*      CLEAR     67  66  95 CALM      29.98S
DE KALB*       CLEAR     67  65  96 CALM      29.99S
PERU*          CLEAR     71  68  92 E7        29.97R FOG
$$

ILZ005-006-012>014-019>023-040900-
NORTHEAST ILLINOIS

CITY           SKY/WX    TMP DP  RH WIND       PRES   REMARKS
CHICAGO-OHARE  PTCLDY    70  67  90 N3        29.97R
CHICAGO-MIDWAY CLEAR     73  66  78 CALM      29.96S
AURORA         CLEAR     69  66  90 NE3       29.97S
LANSING*       CLEAR     70  66  87 CALM      29.96S
JOLIET*        CLEAR     72  68  89 CALM      29.97S
WAUKEGAN       CLOUDY    67  65  93 CALM      29.97R
DUPAGE AIRPORT CLEAR     68  64  87 NE3       29.97S
KANKAKEE*      CLEAR     68  67  96 CALM      29.97S FOG
WHEELING       CLEAR     68  66  93 CALM      29.98S
MORRIS*        CLEAR     69  67  93 E3        29.96S
ROMEOVILLE*    CLEAR     69  66  92 CALM      29.97S
NORTHERLY ISL    N/A     69  66  90 NW2         N/A
$$

LMZ740>746-040900-
SOUTHERN LAKE MICHIGAN

STATION/POSITION SKY/WX   TEMP    WIND        PRES    VSBY  WAVE
                          AIR SEA DIR/SP/G                  HT/PER
                          (F)     (DEG/KT/KT) (MB)    (MI)  (FT/S)
SOUTHERN BUOY              69 71  300/ 10/ 10 1013.8R         2/ 4
WILMETTE HARBOR            66 71  120/  6/  6   N/A           1/ 2
HARRISON CRIB              68     330/  6/  7   N/A
BURNHAM HARBOR             69     340/  4       N/A
CALUMET HARBOR             71      10/  4/  5   N/A
BURNS HARBOR               72      30/  5/  7 1014.9F
MICHIGAN CITY              71     360/  4/  4   N/A
MICHIGAN CITY 6N           72 73   20/  6/ 10   N/A           2/ 4
ST. JOSEPH                 70 73   30/  6/  8   N/A           1/ 4
$$

ILZ025>027-034>036-040-047-049-050-058-095>099-040900-
WEST-CENTRAL ILLINOIS

CITY           SKY/WX    TMP DP  RH WIND       PRES   REMARKS
QUINCY         CLEAR     72  67  84 S6        29.96R
GALESBURG*     CLEAR     69  67  92 CALM      29.96R
MACOMB*        CLEAR     69  67  94 CALM      29.98S
JACKSONVILLE*  CLEAR     74  69  82 SW5       29.95S
PITTSFIELD*    CLEAR     76  68  77 CALM      29.97S
$$

ILZ028>032-037-038-041>044-048-051>054-059>061-040900-
CENTRAL ILLINOIS

CITY           SKY/WX    TMP DP  RH WIND       PRES   REMARKS
PONTIAC        CLEAR     72  69  92 CALM      29.97S
BLOOMINGTON    CLEAR     73  68  84 SW5       29.98S
DECATUR        CLEAR     73  66  78 CALM      29.97R
PEORIA         CLEAR     76  68  76 CALM      29.96R
LACON*         CLEAR     70  68  95 CALM      29.94S
LINCOLN*       CLEAR     69  65  86 CALM      29.96S
SPRINGFIELD    CLEAR     71  66  84 CALM      29.96S
TAYLORVILLE    CLEAR     70  68  94 S3        29.97S
$$

ILZ033-039-045-046-055>057-062-063-040900-
EAST-CENTRAL ILLINOIS

CITY           SKY/WX    TMP DP  RH WIND       PRES   REMARKS
CHAMPAIGN      CLEAR     69  66  90 SW3       29.97S
RANTOUL*       CLEAR     73  68  84 W5        29.96S
MATTOON        CLEAR     76  66  71 SW6       29.96S
PARIS*         CLEAR     71  67  90 CALM      29.98R
$$

ILZ079-100>102-040900-
SOUTHWEST ILLINOIS

CITY           SKY/WX    TMP DP  RH WIND       PRES   REMARKS
ALTON          CLEAR     68  67  98 CALM      29.97S FOG
BELLEVILLE     CLEAR     71  71 100 CALM      29.95S
CAHOKIA*       CLEAR     71  67  87 CALM      29.96S
SPARTA*        CLEAR     73  69  85 CALM      29.98S
$$

ILZ064>066-069>071-074>076-080>082-084>086-088>090-092>094-040900-
SOUTH-CENTRAL ILLINOIS

CITY           SKY/WX    TMP DP  RH WIND       PRES   REMARKS
CARBONDALE     FOG       68  67  96 CALM      29.97S VSB 1/4
CAIRO*         CLEAR     68  68 100 CALM      29.97S
EFFINGHAM*     CLEAR     69  66  91 CALM      29.99R FOG
MARION         CLEAR     72  70  94 CALM      29.98S
MT. VERNON     CLEAR     68  63  83 CALM      29.98S
CENTRALIA*     CLEAR     69  69  99 CALM      29.97R
SALEM*         CLEAR     69  67  92 CALM      29.97S
METROPOLIS*    FOG       68  68 100 CALM      29.98S VSB 1/2
$$

ILZ067-068-072-073-078-083-087-091-040900-
SOUTHEAST ILLINOIS

CITY           SKY/WX    TMP DP  RH WIND       PRES   REMARKS
LAWRENCEVILLE  CLEAR     69  67  93 CALM      29.97S
FLORA*         CLEAR     67  65  93 CALM      29.98R
FAIRFIELD*     CLEAR     68  67  98 CALM      29.97R FOG
HARRISBURG*    CLEAR     67  67  98 CALM      29.98R FOG
ROBINSON*      CLEAR     66  65  97 CALM      29.97S
CARMI*           N/A     65  65 100 CALM      29.97S FOG
$$

ABBREVIATIONS USED IN REMARKS
   TC - TEMPERATURE IN CELSIUS
  WCI - WIND CHILL INDEX
   HX - HEAT INDEX
  VSB - VISIBILITY
$$




USA.gov is the U.S. government's official web portal to all federal, state and local government web resources and services.